CW5071 Weather Reports


time (UTC)temp
C
wind
direction
speed
KPH
gust
KPH
rain 1hr
cm
rain 24hr
cm
rain mn
cm
humidity
%
barometer
mb
20260510142528 18 293 1.6 0.0 0.00 0.00 0.00 63 1016.8
20260510142027 18 293 0.0 0.0 0.00 0.00 0.00 62 1016.8
20260510141549 17 226 0.0 0.0 0.00 0.00 0.00 62 1016.3
20260510141027 17 161 1.6 0.0 0.00 0.00 0.00 62 1016.3
20260510140529 17 288 1.6 0.0 0.00 0.00 0.00 62 1016.3
20260510140030 17 286 1.6 0.0 0.00 0.00 0.00 64 1016.2
20260510135530 17 286 0.0 0.0 0.00 0.00 0.00 63 1016.2
20260510135029 17 306 0.0 0.0 0.00 0.00 0.00 65 1016.2
20260510134529 17 306 0.0 0.0 0.00 0.00 0.00 64 1015.8
20260510134030 16 306 1.6 0.0 0.00 0.00 0.00 64 1015.8
20260510133553 16 306 1.6 0.0 0.00 0.00 0.00 64 1015.8
20260510133034 16 312 0.0 0.0 0.00 0.00 0.00 65 1015.5
20260510132533 16 19 0.0 0.0 0.00 0.00 0.00 66 1015.5
20260510132034 16 284 1.6 0.0 0.00 0.00 0.00 67 1015.5
20260510131534 16 284 1.6 0.0 0.00 0.00 0.00 68 1015.2
20260510131101 16 278 1.6 0.0 0.00 0.00 0.00 68 1015.2
20260510130523 16 288 1.6 0.0 0.00 0.00 0.00 69 1015.2
20260510130027 16 286 1.6 0.0 0.00 0.00 0.00 71 1015.0
20260510125545 15 273 0.0 0.0 0.00 0.00 0.00 72 1015.0
20260510125044 15 355 0.0 0.0 0.00 0.00 0.00 73 1015.0
20260510124524 15 355 0.0 0.0 0.00 0.00 0.00 74 1014.7
20260510124046 15 291 0.0 0.0 0.00 0.00 0.00 75 1014.7
20260510123525 15 291 0.0 0.0 0.00 0.00 0.00 76 1014.7
20260510123026 15 291 0.0 0.0 0.00 0.00 0.00 77 1014.6
20260510122524 14 291 0.0 0.0 0.00 0.00 0.00 79 1014.6
20260510122027 14 291 0.0 0.0 0.00 0.00 0.00 80 1014.6
20260510121527 14 291 0.0 0.0 0.00 0.00 0.00 82 1014.4
20260510121028 13 291 0.0 0.0 0.00 0.00 0.00 83 1014.4
20260510120528 13 291 0.0 0.0 0.00 0.00 0.00 84 1014.4
20260510120052 13 65 0.0 0.0 0.00 0.00 0.00 85 1014.1
20260510115527 12 65 0.0 0.0 0.00 0.00 0.00 85 1014.1
20260510115028 12 65 0.0 0.0 0.00 0.00 0.00 86 1014.1
20260510114528 12 65 0.0 0.0 0.00 0.00 0.00 86 1014.0
20260510114028 12 65 0.0 0.0 0.00 0.00 0.00 85 1014.0
20260510113532 12 65 0.0 0.0 0.00 0.00 0.00 85 1014.0
20260510113053 12 65 0.0 0.0 0.00 0.00 0.00 86 1013.5
20260510112527 12 65 0.0 0.0 0.00 0.00 0.00 86 1013.5
20260510112027 12 65 0.0 0.0 0.00 0.00 0.00 85 1013.5
20260510111528 12 65 0.0 0.0 0.00 0.00 0.00 85 1013.2
20260510111029 12 65 0.0 0.0 0.00 0.00 0.00 86 1013.2
20260510110550 12 65 0.0 0.0 0.00 0.00 0.00 86 1013.2
20260510110045 12 65 0.0 0.0 0.00 0.00 0.00 85 1013.0
20260510105525 12 65 0.0 0.0 0.00 0.00 0.00 85 1013.0
20260510105027 12 67 0.0 0.0 0.00 0.00 0.00 85 1013.0
20260510104527 12 67 0.0 0.0 0.00 0.00 0.00 84 1012.9
20260510104029 12 67 0.0 0.0 0.00 0.00 0.00 84 1012.9
20260510103529 12 67 0.0 0.0 0.00 0.00 0.00 84 1012.9
20260510103032 12 67 0.0 0.0 0.00 0.00 0.00 84 1012.9
20260510102532 12 67 0.0 0.0 0.00 0.00 0.00 83 1012.9
20260510102059 12 67 0.0 0.0 0.00 0.00 0.00 83 1012.9
20260510101539 12 67 0.0 0.0 0.00 0.00 0.00 83 1012.9
20260510101039 12 67 0.0 0.0 0.00 0.00 0.00 83 1012.7
20260510100523 12 67 0.0 0.0 0.00 0.00 0.00 82 1012.7
20260510100028 12 67 0.0 0.0 0.00 0.00 0.00 82 1012.6
20260510095526 12 67 0.0 0.0 0.00 0.00 0.00 82 1012.6
20260510095027 12 67 0.0 0.0 0.00 0.00 0.00 82 1012.6
20260510094528 12 67 0.0 0.0 0.00 0.00 0.00 82 1012.4
20260510094032 13 67 0.0 0.0 0.00 0.00 0.00 82 1012.4
20260510093532 13 67 0.0 0.0 0.00 0.00 0.00 82 1012.4
20260510093048 13 67 0.0 0.0 0.00 0.00 0.00 81 1012.2
20260510092530 13 67 0.0 0.0 0.00 0.00 0.00 82 1012.2
20260510092029 13 67 0.0 0.0 0.00 0.00 0.00 82 1012.2
20260510091529 13 67 0.0 0.0 0.00 0.00 0.00 81 1012.1
20260510091050 13 67 0.0 0.0 0.00 0.00 0.00 81 1012.1
20260510090529 13 67 0.0 0.0 0.00 0.00 0.00 81 1012.1
20260510090026 13 67 0.0 0.0 0.00 0.00 0.00 81 1011.9
20260510085526 13 67 0.0 0.0 0.00 0.00 0.00 81 1011.9
20260510085047 13 67 0.0 0.0 0.00 0.00 0.00 81 1011.9
20260510084529 13 67 0.0 0.0 0.00 0.00 0.00 81 1011.5
20260510084028 13 67 0.0 0.0 0.00 0.00 0.00 81 1011.5
20260510083529 13 67 0.0 0.0 0.00 0.00 0.00 81 1011.5
20260510083024 13 67 0.0 0.0 0.00 0.00 0.00 81 1011.6
20260510082546 13 67 0.0 0.0 0.00 0.00 0.00 81 1011.6
20260510082027 13 67 0.0 0.0 0.00 0.00 0.00 81 1011.6
20260510081527 13 67 0.0 0.0 0.00 0.00 0.00 81 1011.9
20260510081027 13 67 0.0 0.0 0.00 0.00 0.00 80 1011.9
20260510080531 13 67 0.0 0.0 0.00 0.00 0.00 80 1011.9
20260510080027 13 67 0.0 0.0 0.00 0.00 0.00 80 1011.9
20260510075528 13 67 0.0 0.0 0.00 0.00 0.00 80 1011.9
20260510075029 13 67 0.0 0.0 0.00 0.00 0.00 80 1011.9
20260510074531 13 67 0.0 0.0 0.00 0.00 0.00 80 1011.7
20260510074051 13 67 0.0 0.0 0.00 0.00 0.00 81 1011.7
20260510073532 13 67 0.0 0.0 0.00 0.00 0.00 81 1011.7
20260510073029 13 67 0.0 0.0 0.00 0.00 0.00 81 1011.7
20260510072532 13 67 0.0 0.0 0.00 0.00 0.00 81 1011.7
20260510072055 13 67 0.0 0.0 0.00 0.00 0.00 81 1011.7
20260510071534 13 67 0.0 0.0 0.00 0.00 0.00 81 1011.7
20260510071037 13 67 0.0 0.0 0.00 0.00 0.00 81 1011.7
20260510070537 13 67 0.0 0.0 0.00 0.00 0.00 81 1011.7
20260510070033 13 67 0.0 0.0 0.00 0.00 0.00 81 1011.6
20260510065532 13 67 0.0 0.0 0.00 0.00 0.00 81 1011.6
20260510065031 13 67 0.0 0.0 0.00 0.00 0.00 81 1011.6
20260510064534 13 67 0.0 0.0 0.00 0.00 0.00 81 1011.7
20260510064037 13 67 0.0 0.0 0.00 0.00 0.00 81 1011.7
20260510063539 13 67 0.0 0.0 0.00 0.00 0.00 81 1011.7
20260510063040 13 67 0.0 0.0 0.00 0.00 0.00 81 1011.7
20260510062536 13 67 0.0 0.0 0.00 0.00 0.00 81 1011.8
20260510062100 13 67 0.0 0.0 0.00 0.00 0.00 80 1011.8
20260510061522 13 67 0.0 0.0 0.00 0.00 0.00 80 1011.3
20260510061024 13 67 0.0 0.0 0.00 0.00 0.00 79 1011.3
20260510060524 13 67 0.0 0.0 0.00 0.00 0.00 79 1011.3
20260510060033 14 67 0.0 0.0 0.00 0.00 0.00 80 1011.3
20260510055529 14 67 0.0 0.0 0.00 0.00 0.00 80 1011.3
20260510055032 14 67 0.0 0.0 0.00 0.00 0.00 80 1011.3
20260510054534 14 67 0.0 0.0 0.00 0.00 0.00 80 1011.5
20260510054033 14 67 0.0 0.0 0.00 0.00 0.00 80 1011.5
20260510053532 14 67 0.0 0.0 0.00 0.00 0.00 80 1011.5
20260510053034 14 67 0.0 0.0 0.00 0.00 0.00 80 1011.6
20260510052533 14 67 0.0 0.0 0.00 0.00 0.00 79 1011.6
20260510052033 14 67 0.0 0.0 0.00 0.00 0.00 79 1011.6
20260510051554 14 67 0.0 0.0 0.00 0.00 0.00 79 1011.0
20260510051033 14 67 0.0 0.0 0.00 0.00 0.00 79 1011.0
20260510050534 14 67 0.0 0.0 0.00 0.00 0.00 78 1011.0
20260510050033 14 67 0.0 0.0 0.00 0.00 0.00 78 1011.0
20260510045554 14 67 0.0 0.0 0.00 0.00 0.00 78 1011.0
20260510045052 14 67 0.0 0.0 0.00 0.00 0.00 78 1011.0
20260510044534 14 67 0.0 0.0 0.00 0.00 0.00 78 1011.1
20260510044036 15 67 0.0 0.0 0.00 0.00 0.00 78 1011.1
20260510043537 14 67 0.0 0.0 0.00 0.00 0.00 77 1011.1
20260510043038 14 67 0.0 0.0 0.00 0.00 0.00 77 1011.1
20260510042520 14 67 0.0 0.0 0.00 0.00 0.00 76 1011.0
20260510042027 14 67 0.0 0.0 0.00 0.00 0.00 75 1011.0
20260510041528 14 67 0.0 0.0 0.00 0.00 0.00 75 1010.9
20260510041027 14 67 0.0 0.0 0.00 0.00 0.00 75 1010.9
20260510040526 14 67 0.0 0.0 0.00 0.00 0.00 75 1010.9
20260510040028 14 67 0.0 0.0 0.00 0.00 0.00 74 1010.7
20260510035529 14 67 0.0 0.0 0.00 0.00 0.00 73 1010.7
20260510035026 15 67 0.0 0.0 0.00 0.00 0.00 72 1010.7
20260510034529 15 67 0.0 0.0 0.00 0.00 0.00 72 1010.8
20260510034030 15 67 0.0 0.0 0.00 0.00 0.00 72 1010.8
20260510033533 15 67 0.0 0.0 0.00 0.00 0.00 72 1010.8
20260510033035 15 67 0.0 0.0 0.00 0.00 0.00 72 1010.6
20260510032534 15 67 0.0 0.0 0.00 0.00 0.00 71 1010.6
20260510032030 15 67 0.0 0.0 0.00 0.00 0.00 71 1010.6
20260510031530 15 67 0.0 0.0 0.00 0.00 0.00 71 1010.9
20260510031030 15 67 0.0 0.0 0.00 0.00 0.00 69 1010.9
20260510030530 15 67 0.0 0.0 0.00 0.00 0.00 69 1010.9
20260510030034 15 67 0.0 0.0 0.00 0.00 0.00 67 1010.3
20260510025534 15 67 0.0 0.0 0.00 0.00 0.00 65 1010.3
20260510025033 16 67 0.0 0.0 0.00 0.00 0.00 65 1010.3
20260510024534 16 67 0.0 0.0 0.00 0.00 0.00 64 1009.9
20260510024034 16 67 0.0 0.0 0.00 0.00 0.00 64 1009.9
20260510023533 17 67 0.0 0.0 0.00 0.00 0.00 63 1009.9
20260510023035 17 67 0.0 0.0 0.00 0.00 0.00 63 1009.7
20260510022541 17 67 0.0 0.0 0.00 0.00 0.00 62 1009.7
20260510022041 17 67 0.0 0.0 0.00 0.00 0.00 61 1009.7
20260510021535 18 67 0.0 0.0 0.00 0.00 0.00 61 1009.6
20260510021032 18 67 0.0 0.0 0.00 0.00 0.00 61 1009.6
20260510020531 18 67 0.0 0.0 0.00 0.00 0.00 60 1009.6
20260510020029 18 67 0.0 0.0 0.00 0.00 0.00 59 1009.3
20260510015530 19 67 0.0 0.0 0.00 0.00 0.00 59 1009.3
20260510015030 19 67 0.0 0.0 0.00 0.00 0.00 58 1009.3
20260510014530 19 67 0.0 0.0 0.00 0.00 0.00 58 1008.8
20260510014030 20 67 0.0 0.0 0.00 0.00 0.00 55 1008.8
20260510013533 20 67 0.0 0.0 0.00 0.00 0.00 52 1008.8
20260510013101 20 67 0.0 0.0 0.00 0.00 0.00 53 1008.8
20260510012541 20 67 0.0 0.0 0.00 0.00 0.00 53 1008.9
20260510012041 21 67 0.0 0.0 0.00 0.00 0.00 54 1008.9
20260510011521 21 67 0.0 0.0 0.00 0.00 0.00 51 1008.8
20260510011037 21 67 0.0 0.0 0.00 0.00 0.00 51 1008.8
20260510010538 22 67 0.0 0.0 0.00 0.00 0.00 52 1008.8
20260510010023 22 67 0.0 0.0 0.00 0.00 0.00 50 1008.7
20260510005524 22 67 0.0 0.0 0.00 0.00 0.00 48 1008.7
20260510005028 22 67 0.0 0.0 0.00 0.00 0.00 47 1008.7
20260510004532 22 67 0.0 0.0 0.00 0.00 0.00 47 1008.3
20260510004028 23 42 0.0 0.0 0.00 0.00 0.00 47 1008.3
20260510003548 23 42 0.0 0.0 0.00 0.00 0.00 48 1008.3
20260510003035 23 42 0.0 0.0 0.00 0.00 0.00 47 1008.2
20260510002534 23 42 0.0 0.0 0.00 0.00 0.00 45 1008.2
20260510002036 23 42 0.0 0.0 0.00 0.00 0.00 46 1008.2
20260510001600 24 42 0.0 0.0 0.00 0.00 0.00 46 1008.6
20260510001035 24 42 0.0 0.0 0.00 0.00 0.00 41 1008.6
20260510000522 25 42 0.0 0.0 0.00 0.00 0.00 39 1008.6
20260510000022 25 42 0.0 0.0 0.00 0.00 0.00 37 1008.5
20260509235526 25 42 0.0 0.0 0.00 0.00 0.00 39 1008.5
20260509235028 26 42 0.0 0.0 0.00 0.00 0.00 34 1008.5
20260509234529 26 42 0.0 0.0 0.00 0.00 0.00 33 1008.4
20260509234025 27 42 0.0 0.0 0.00 0.00 0.00 29 1008.4
20260509233526 27 42 0.0 0.0 0.00 0.00 0.00 28 1008.4
20260509233028 27 42 0.0 0.0 0.00 0.00 0.00 25 1008.4
20260509232548 28 42 0.0 0.0 0.00 0.00 0.00 25 1008.4
20260509232028 28 184 0.0 0.0 0.00 0.00 0.00 25 1008.4
20260509231532 28 184 0.0 0.0 0.00 0.00 0.00 27 1008.3
20260509231050 28 184 0.0 0.0 0.00 0.00 0.00 28 1008.3
20260509230530 28 184 0.0 0.0 0.00 0.00 0.00 27 1008.3
20260509230033 28 184 0.0 0.0 0.00 0.00 0.00 24 1008.2
20260509225537 28 184 0.0 0.0 0.00 0.00 0.00 23 1008.2
20260509225039 28 184 0.0 0.0 0.00 0.00 0.00 23 1008.2
20260509224539 28 184 0.0 0.0 0.00 0.00 0.00 26 1008.2
20260509224039 27 184 0.0 0.0 0.00 0.00 0.00 27 1008.3
20260509223522 28 184 0.0 0.0 0.00 0.00 0.00 23 1008.3
20260509223045 28 197 0.0 0.0 0.00 0.00 0.00 27 1008.3
20260509222545 28 55 0.0 0.0 0.00 0.00 0.00 24 1008.3
20260509222028 28 55 0.0 0.0 0.00 0.00 0.00 23 1008.3
20260509221528 28 294 0.0 0.0 0.00 0.00 0.00 23 1008.3
20260509221024 27 294 0.0 0.0 0.00 0.00 0.00 22 1008.3
20260509220527 27 294 0.0 0.0 0.00 0.00 0.00 22 1008.3
20260509220028 27 294 0.0 0.0 0.00 0.00 0.00 22 1008.3
20260509215528 28 300 0.0 0.0 0.00 0.00 0.00 26 1008.3
20260509215049 28 310 0.0 0.0 0.00 0.00 0.00 25 1008.3
20260509214531 28 338 0.0 0.0 0.00 0.00 0.00 24 1008.3
20260509214027 28 291 0.0 0.0 0.00 0.00 0.00 24 1008.3
20260509213532 28 346 0.0 0.0 0.00 0.00 0.00 26 1008.3
20260509213035 28 346 0.0 0.0 0.00 0.00 0.00 27 1008.3
20260509212537 28 268 0.0 0.0 0.00 0.00 0.00 24 1008.3
20260509212058 28 265 0.0 0.0 0.00 0.00 0.00 24 1008.3
20260509211553 28 208 0.0 0.0 0.00 0.00 0.00 23 1008.3
20260509211057 28 207 0.0 0.0 0.00 0.00 0.00 23 1008.3
20260509210539 28 59 0.0 0.0 0.00 0.00 0.00 23 1008.3
20260509210040 28 229 0.0 0.0 0.00 0.00 0.00 24 1008.5
20260509205544 28 227 0.0 0.0 0.00 0.00 0.00 28 1008.5
20260509205022 28 230 0.0 0.0 0.00 0.00 0.00 22 1008.5
20260509204526 28 225 0.0 0.0 0.00 0.00 0.00 24 1008.5
20260509204029 28 334 0.0 0.0 0.00 0.00 0.00 28 1008.5
20260509203528 27 334 0.0 0.0 0.00 0.00 0.00 22 1008.5
20260509203032 28 202 0.0 0.0 0.00 0.00 0.00 26 1008.7
20260509202533 27 182 0.0 0.0 0.00 0.00 0.00 26 1008.7
20260509202033 28 215 0.0 0.0 0.00 0.00 0.00 24 1008.7
20260509201532 28 173 0.0 0.0 0.00 0.00 0.00 22 1009.0
20260509201034 28 346 0.0 0.0 0.00 0.00 0.00 21 1009.0
20260509200535 28 346 0.0 0.0 0.00 0.00 0.00 24 1009.0
20260509200034 28 39 0.0 0.0 0.00 0.00 0.00 25 1009.1
20260509195531 28 66 0.0 0.0 0.00 0.00 0.00 24 1009.1
20260509195029 28 66 0.0 0.0 0.00 0.00 0.00 26 1009.1
20260509194550 27 53 0.0 0.0 0.00 0.00 0.00 28 1009.2
20260509194029 27 57 0.0 0.0 0.00 0.00 0.00 25 1009.2
20260509193549 27 210 1.6 0.0 0.00 0.00 0.00 23 1009.2
20260509193034 27 223 0.0 0.0 0.00 0.00 0.00 26 1009.2
20260509192533 27 134 0.0 0.0 0.00 0.00 0.00 23 1009.2
20260509192033 27 219 0.0 0.0 0.00 0.00 0.00 26 1009.2
20260509191532 27 238 0.0 0.0 0.00 0.00 0.00 25 1009.1
20260509191056 27 35 0.0 0.0 0.00 0.00 0.00 23 1009.1
20260509190559 27 268 0.0 0.0 0.00 0.00 0.00 26 1009.1
20260509190025 27 267 0.0 0.0 0.00 0.00 0.00 27 1009.2
20260509185522 27 115 0.0 0.0 0.00 0.00 0.00 28 1009.2
20260509185026 27 214 0.0 0.0 0.00 0.00 0.00 27 1009.2
20260509184554 27 89 1.6 0.0 0.00 0.00 0.00 26 1009.2
20260509184055 27 244 0.0 0.0 0.00 0.00 0.00 26 1009.2
20260509183533 27 342 0.0 0.0 0.00 0.00 0.00 29 1009.2
20260509183032 27 342 0.0 0.0 0.00 0.00 0.00 28 1009.2
20260509182537 27 342 1.6 0.0 0.00 0.00 0.00 27 1009.2
20260509182102 27 200 1.6 0.0 0.00 0.00 0.00 27 1009.2
20260509181524 27 107 1.6 0.0 0.00 0.00 0.00 25 1009.1
20260509181025 27 229 1.6 0.0 0.00 0.00 0.00 29 1009.1
20260509180601 27 268 1.6 0.0 0.00 0.00 0.00 25 1009.1
20260509180036 27 46 0.0 0.0 0.00 0.00 0.00 28 1009.1
20260509175523 27 313 0.0 0.0 0.00 0.00 0.00 27 1009.3
20260509175024 27 323 0.0 0.0 0.00 0.00 0.00 29 1009.3
20260509174523 27 336 0.0 0.0 0.00 0.00 0.00 28 1009.5
20260509174026 27 119 0.0 0.0 0.00 0.00 0.00 31 1009.5
20260509173546 27 302 0.0 0.0 0.00 0.00 0.00 28 1009.5
20260509173026 27 302 0.0 0.0 0.00 0.00 0.00 31 1009.6
20260509172527 27 315 0.0 0.0 0.00 0.00 0.00 32 1009.6
20260509172029 26 292 0.0 0.0 0.00 0.00 0.00 34 1009.6
20260509171549 26 288 0.0 0.0 0.00 0.00 0.00 27 1009.4
20260509171031 26 341 0.0 0.0 0.00 0.00 0.00 35 1009.4
20260509170527 26 355 0.0 0.0 0.00 0.00 0.00 34 1009.4
20260509170029 26 360 0.0 0.0 0.00 0.00 0.00 33 1009.4
20260509165528 26 211 0.0 0.0 0.00 0.00 0.00 31 1009.4
20260509165030 26 203 0.0 0.0 0.00 0.00 0.00 35 1009.4
20260509164529 26 203 0.0 0.0 0.00 0.00 0.00 37 1009.4
20260509164033 26 259 0.0 0.0 0.00 0.00 0.00 38 1009.4
20260509163537 26 253 0.0 0.0 0.00 0.00 0.00 42 1009.4
20260509163034 25 249 0.0 0.0 0.00 0.00 0.00 38 1009.5
20260509162521 25 146 1.6 0.0 0.00 0.00 0.00 37 1009.5
20260509162037 25 224 1.6 0.0 0.00 0.00 0.00 41 1009.5
20260509161548 25 88 0.0 0.0 0.00 0.00 0.00 41 1009.3
20260509161030 25 198 0.0 0.0 0.00 0.00 0.00 45 1009.3
20260509160526 25 198 0.0 0.0 0.00 0.00 0.00 48 1009.3
20260509160028 25 198 0.0 0.0 0.00 0.00 0.00 50 1009.4
20260509155527 24 196 0.0 0.0 0.00 0.00 0.00 48 1009.4
20260509155027 24 196 0.0 0.0 0.00 0.00 0.00 49 1009.4
20260509154539 23 188 0.0 0.0 0.00 0.00 0.00 52 1009.4
20260509154037 23 188 0.0 0.0 0.00 0.00 0.00 52 1009.4
20260509153534 23 209 0.0 0.0 0.00 0.00 0.00 51 1009.4
20260509153034 23 331 0.0 0.0 0.00 0.00 0.00 52 1009.5
20260509152535 22 230 0.0 0.0 0.00 0.00 0.00 54 1009.5
20260509152055 22 349 0.0 0.0 0.00 0.00 0.00 59 1009.5
20260509151535 21 351 0.0 0.0 0.00 0.00 0.00 60 1009.6
20260509151037 21 349 0.0 0.0 0.00 0.00 0.00 62 1009.6
20260509150535 20 351 0.0 0.0 0.00 0.00 0.00 69 1009.6
20260509150033 20 351 0.0 0.0 0.00 0.00 0.00 68 1009.7
20260509145536 19 351 0.0 0.0 0.00 0.00 0.00 71 1009.7
20260509145101 18 351 0.0 0.0 0.00 0.00 0.00 74 1009.7
20260509144539 18 210 0.0 0.0 0.00 0.00 0.00 78 1009.7
20260509144034 17 206 0.0 0.0 0.00 0.00 0.00 81 1009.8
20260509143533 17 206 0.0 0.0 0.00 0.00 0.00 85 1009.8
20260509143032 17 206 0.0 0.0 0.00 0.00 0.00 86 1009.8